Alpena, MI

4:02 PM EDT on September 30, 2016 (GMT -0400)
Alpena County Regional

Weather History for KAPN - December, 2014

Change the Weather History Date:

Monday, December 22, 2014

  Actual Average Record
Temperature  
Mean Temperature 32 °F 23 °F  
Max Temperature 35 °F 30 °F 59 °F (1918)
Min Temperature 28 °F 16 °F -13 °F (1935)
Degree Days  
Heating Degree Days 33 42  
Month to date heating degree days 814 851  
Since 1 July heating degree days 2747 2674  
Moisture  
Dew Point 26 °F    
Average Humidity 80    
Maximum Humidity 85    
Minimum Humidity 75    
Precipitation  
Precipitation 0.00 in 0.05 in 0.70 in (2006)
Month to date precipitation 0.76 1.27  
Year to date precipitation 33.87 27.68  
Snow  
Snow 0.00 in 0.60 in 6.90 in (1970)
Month to date snowfall 0.5 13.2  
Since 1 July snowfall 16.1 21.3  
Snow Depth 0.00 in    
Sea Level Pressure  
Sea Level Pressure 30.09 in    
Wind  
Wind Speed 9 mph (SE)    
Max Wind Speed 15 mph    
Max Gust Speed 20 mph    
Visibility 9 miles    
Events      
T = Trace of Precipitation, MM = Missing Value Source: NWS Daily Summary

Daily Weather History Graph

Daily Weather History Graph

Search for Another Location

Airport or City:

Trip Planner

Search our weather history database for the weather conditions in past years. The results will help you decide how hot, cold, wet, or windy it might be!

Date:

Astronomy

Dec. 22, 2014 Rise Set
Actual Time 8:10 AM EST 4:55 PM EST
Civil Twilight 7:36 AM EST 5:29 PM EST
Nautical Twilight 6:58 AM EST 6:06 PM EST
Astronomical Twilight 6:23 AM EST 6:42 PM EST
Moon 8:18 AM EST (12/22) 6:06 PM EST (12/22)
Length of Visible Light 9h 53m
Length of Day
8h 45m
New Moon, 1% of the Moon is Illuminated
Dec 22
New Moon
Dec 28
First Quarter
Jan 4
Full
Jan 13
Last Quarter
Jan 20
New

Hourly Weather History & Observations

Time (EST) Temp. Windchill Dew Point Humidity Pressure Visibility Wind Dir Wind Speed Gust Speed Precip Events Conditions
12:54 AM 30.9 °F 21.7 °F 26.1 °F 82% 30.17 in 8.0 mi South 11.5 mph - N/A   Overcast
1:54 AM 30.9 °F 21.7 °F 25.0 °F 79% 30.17 in 8.0 mi SSE 11.5 mph - N/A   Overcast
2:54 AM 30.0 °F 19.5 °F 25.0 °F 82% 30.16 in 8.0 mi SSE 13.8 mph - N/A   Overcast
3:54 AM 30.0 °F 20.5 °F 25.0 °F 82% 30.15 in 8.0 mi SSE 11.5 mph - N/A   Mostly Cloudy
4:54 AM 28.9 °F 20.4 °F 24.1 °F 82% 30.15 in 8.0 mi SSE 9.2 mph - N/A   Partly Cloudy
5:54 AM 28.9 °F 20.4 °F 25.0 °F 85% 30.15 in 8.0 mi SSE 9.2 mph - N/A   Partly Cloudy
6:54 AM 28.9 °F 20.4 °F 25.0 °F 85% 30.15 in 8.0 mi SSE 9.2 mph - N/A   Clear
7:54 AM 28.9 °F 21.1 °F 25.0 °F 85% 30.15 in 8.0 mi SSE 8.1 mph - N/A   Partly Cloudy
8:26 AM 28.9 °F 19.2 °F 24.1 °F 82% 30.12 in 8.0 mi South 11.5 mph - N/A   Mostly Cloudy
8:54 AM 28.9 °F 19.8 °F 24.1 °F 82% 30.14 in 8.0 mi South 10.4 mph - N/A   Overcast
9:54 AM 30.9 °F 24.3 °F 25.0 °F 79% 30.14 in 9.0 mi SSE 6.9 mph - N/A   Overcast
10:54 AM 32.0 °F 24.2 °F 26.1 °F 79% 30.14 in 10.0 mi South 9.2 mph - N/A   Mostly Cloudy
11:54 AM 33.1 °F 24.9 °F 26.1 °F 75% 30.12 in 10.0 mi South 10.4 mph - N/A   Overcast
12:54 PM 34.0 °F 26.0 °F 27.0 °F 75% 30.06 in 10.0 mi SE 10.4 mph - N/A   Mostly Cloudy
1:54 PM 34.0 °F 25.0 °F 27.0 °F 75% 30.05 in 10.0 mi SE 12.7 mph - N/A   Overcast
2:54 PM 34.0 °F 25.5 °F 28.0 °F 79% 30.04 in 10.0 mi SE 11.5 mph - N/A   Overcast
3:54 PM 33.1 °F 26.1 °F 27.0 °F 78% 30.03 in 10.0 mi SE 8.1 mph - N/A   Overcast
4:54 PM 33.1 °F 26.1 °F 27.0 °F 78% 30.03 in 10.0 mi SE 8.1 mph - N/A   Overcast
5:54 PM 32.0 °F 26.4 °F 28.0 °F 85% 30.03 in 10.0 mi ESE 5.8 mph - N/A   Overcast
6:54 PM 33.1 °F 26.1 °F 27.0 °F 78% 30.02 in 10.0 mi SE 8.1 mph - N/A   Overcast
7:54 PM 33.1 °F 26.1 °F 27.0 °F 78% 30.02 in 10.0 mi ESE 8.1 mph - N/A   Overcast
8:54 PM 33.1 °F 26.1 °F 27.0 °F 78% 30.01 in 10.0 mi ESE 8.1 mph - N/A   Overcast
9:54 PM 33.1 °F 26.1 °F 28.0 °F 82% 30.01 in 9.0 mi ESE 8.1 mph - N/A   Overcast
10:54 PM 33.1 °F 26.1 °F 28.0 °F 82% 29.99 in 9.0 mi ESE 8.1 mph - N/A   Overcast
11:54 PM 34.0 °F 27.2 °F 30.0 °F 85% 29.98 in 6.0 mi ESE 8.1 mph - N/A   Overcast